FLOCK 2P-3 (41618 NORAD) Tracking and Keplerian Element Data

This shows tracking and keplerian element data for the satellite.

Feedback or suggestion? Click here.




ElementValue
Catalog41618
NameFLOCK 2P-3
Epoch Orbit9154
Epoch Day45.44585321
Epoch Year2018
RAAN111.4237
Inclination97.433
Eccentricity0.0009015
Argument of Perigee320.1871
Mean Anonmoly39.8704
Mean Motion15.23933893
Decay Rate2.593E-05
L11 41618U 16040V 18045.44585321 .00002593 00000-0 11016-3 0 9992
L22 41618 97.4330 111.4237 0009015 320.1871 39.8704 15.23933893 91540

Live tracking and technical data element details for FLOCK 2P-3 (NORAD 41618). FLOCK 2P-3 can be tracked NOW for your location showing map with azimuth and elevation plus other details from your city location.

Track the satellite on the map from your city or location and see movement details for azimuth, elevation, latitude, longitude, range, height, and movement on the map or in text.







IsCatalogInMostPopularTable: catalog: 41618, numindb: 107
Update: records affected: 1



GetName: 41618 FLOCK 2P-3

Hit Count: updated at: Mon, 12 Nov 2018 17:54:58 GMT